Time,TemperatureF,DewpointF,PressureIn,WindDirection,WindDirectionDegrees,WindSpeedMPH,WindSpeedGustMPH,Humidity,HourlyPrecipIn,Conditions,Clouds,dailyrainin,SoftwareType,DateUTC
2013-01-15 00:00:00,0.1,-5.7,29.84,SW,225,0.0,0.0,76,0.00,,,-99.99,VWS V12.07,2013-01-15 06:00:00,
2013-01-15 00:05:00,0.1,-5.7,29.84,SW,225,0.0,0.0,76,0.00,,,-99.99,VWS V12.07,2013-01-15 06:05:00,
2013-01-15 00:10:00,-0.2,-5.9,29.84,SW,225,0.0,0.0,76,0.00,,,-99.99,VWS V12.07,2013-01-15 06:10:00,
2013-01-15 00:15:00,-0.2,-5.9,29.85,SW,225,0.0,0.0,76,0.00,,,-99.99,VWS V12.07,2013-01-15 06:15:00,
2013-01-15 00:20:00,-0.2,-5.9,29.84,SW,225,0.0,0.0,76,0.00,,,-99.99,VWS V12.07,2013-01-15 06:20:00,
2013-01-15 00:25:00,-0.5,-6.2,29.84,SW,225,0.0,0.0,76,0.00,,,-99.99,VWS V12.07,2013-01-15 06:25:00,
2013-01-15 00:30:00,-0.5,-6.2,29.84,SW,225,0.0,0.0,76,0.00,,,-99.99,VWS V12.07,2013-01-15 06:30:00,
2013-01-15 00:35:00,-0.5,-6.2,29.84,SW,225,0.0,0.0,76,0.00,,,-99.99,VWS V12.07,2013-01-15 06:35:00,
2013-01-15 00:40:00,-0.7,-6.4,29.83,SW,225,0.0,0.0,76,0.00,,,-99.99,VWS V12.07,2013-01-15 06:40:00,
2013-01-15 00:45:00,-0.7,-6.2,29.83,SW,225,0.0,0.0,77,0.00,,,-99.99,VWS V12.07,2013-01-15 06:45:00,
2013-01-15 00:50:00,-0.7,-6.2,29.83,SW,225,0.0,0.0,77,0.00,,,-99.99,VWS V12.07,2013-01-15 06:50:00,
2013-01-15 00:55:00,-0.7,-6.2,29.83,SW,225,0.0,0.0,77,0.00,,,-99.99,VWS V12.07,2013-01-15 06:55:00,
2013-01-15 01:00:00,-0.5,-6.0,29.83,SW,225,0.0,0.0,77,0.00,,,-99.99,VWS V12.07,2013-01-15 07:00:00,
2013-01-15 01:10:00,-0.2,-5.7,29.84,SW,225,0.0,0.0,77,0.00,,,-99.99,VWS V12.07,2013-01-15 07:10:00,
2013-01-15 01:15:00,-0.2,-5.7,29.84,SW,225,0.0,0.0,77,0.00,,,-99.99,VWS V12.07,2013-01-15 07:15:00,
2013-01-15 01:25:00,0.5,-5.0,29.84,SW,225,0.0,0.8,77,0.00,,,-99.99,VWS V12.07,2013-01-15 07:25:00,
2013-01-15 01:30:00,0.6,-4.9,29.84,SW,225,0.0,0.8,77,0.00,,,-99.99,VWS V12.07,2013-01-15 07:30:00,
2013-01-15 01:35:00,1.0,-4.5,29.84,SW,225,0.0,0.0,77,0.00,,,-99.99,VWS V12.07,2013-01-15 07:35:00,
2013-01-15 01:40:00,1.2,-4.1,29.85,SW,225,0.0,0.0,78,0.00,,,-99.99,VWS V12.07,2013-01-15 07:40:00,
2013-01-15 01:45:00,1.4,-3.8,29.84,SW,225,0.0,0.0,78,0.00,,,-99.99,VWS V12.07,2013-01-15 07:45:00,
2013-01-15 01:50:00,1.5,-3.8,29.84,SW,225,0.0,0.0,78,0.00,,,-99.99,VWS V12.07,2013-01-15 07:50:00,
2013-01-15 01:55:00,1.9,-3.4,29.84,SW,225,0.0,0.0,78,0.00,,,-99.99,VWS V12.07,2013-01-15 07:55:00,
2013-01-15 02:00:00,2.1,-3.2,29.84,SW,225,0.0,0.0,78,0.00,,,-99.99,VWS V12.07,2013-01-15 08:00:00,
2013-01-15 02:05:00,2.1,-3.2,29.84,SW,225,0.0,0.0,78,0.00,,,-99.99,VWS V12.07,2013-01-15 08:05:00,
2013-01-15 02:10:00,2.4,-2.9,29.85,SW,225,2.4,2.4,78,0.00,,,-99.99,VWS V12.07,2013-01-15 08:10:00,
2013-01-15 02:20:00,2.4,-2.9,29.84,SW,225,0.0,0.0,78,0.00,,,-99.99,VWS V12.07,2013-01-15 08:20:00,
2013-01-15 02:25:00,2.4,-2.9,29.84,SW,225,0.0,0.0,78,0.00,,,-99.99,VWS V12.07,2013-01-15 08:25:00,
2013-01-15 02:35:00,2.4,-2.9,29.85,SW,225,0.0,0.0,78,0.00,,,-99.99,VWS V12.07,2013-01-15 08:35:00,
2013-01-15 02:40:00,2.4,-2.9,29.85,SW,225,0.0,0.0,78,0.00,,,-99.99,VWS V12.07,2013-01-15 08:40:00,
2013-01-15 02:45:00,2.4,-2.9,29.85,SW,225,0.0,0.0,78,0.00,,,-99.99,VWS V12.07,2013-01-15 08:45:00,
2013-01-15 02:50:00,2.4,-2.9,29.84,SW,225,0.0,0.0,78,0.00,,,-99.99,VWS V12.07,2013-01-15 08:50:00,
2013-01-15 03:00:00,2.4,-2.9,29.84,SW,225,0.0,0.0,78,0.00,,,-99.99,VWS V12.07,2013-01-15 09:00:00,
2013-01-15 03:05:00,2.4,-2.9,29.83,SW,225,0.0,0.0,78,0.00,,,-99.99,VWS V12.07,2013-01-15 09:05:00,
2013-01-15 03:10:00,2.3,-3.0,29.83,SW,225,0.0,0.0,78,0.00,,,-99.99,VWS V12.07,2013-01-15 09:10:00,
2013-01-15 03:15:00,2.3,-3.0,29.83,SW,225,0.0,0.0,78,0.00,,,-99.99,VWS V12.07,2013-01-15 09:15:00,
2013-01-15 03:20:00,2.3,-3.0,29.83,SW,225,0.0,0.0,78,0.00,,,-99.99,VWS V12.07,2013-01-15 09:20:00,
2013-01-15 03:25:00,2.3,-3.0,29.83,SW,225,0.0,0.0,78,0.00,,,-99.99,VWS V12.07,2013-01-15 09:25:00,
2013-01-15 03:30:00,2.1,-3.2,29.83,SW,225,0.0,0.0,78,0.00,,,-99.99,VWS V12.07,2013-01-15 09:30:00,
2013-01-15 03:35:00,2.1,-3.2,29.83,SW,225,0.0,0.0,78,0.00,,,-99.99,VWS V12.07,2013-01-15 09:35:00,
2013-01-15 03:40:00,1.9,-3.4,29.83,SW,225,0.0,0.0,78,0.00,,,-99.99,VWS V12.07,2013-01-15 09:40:00,
2013-01-15 03:45:00,1.9,-3.4,29.82,SW,225,0.0,0.0,78,0.00,,,-99.99,VWS V12.07,2013-01-15 09:45:00,
2013-01-15 03:50:00,1.9,-3.4,29.82,SW,225,0.0,0.0,78,0.00,,,-99.99,VWS V12.07,2013-01-15 09:50:00,
2013-01-15 03:55:00,2.1,-3.2,29.82,SW,225,0.0,0.0,78,0.00,,,-99.99,VWS V12.07,2013-01-15 09:55:00,
2013-01-15 04:00:00,2.1,-3.2,29.82,SW,225,0.0,0.0,78,0.00,,,-99.99,VWS V12.07,2013-01-15 10:00:00,
2013-01-15 04:05:00,2.3,-3.0,29.82,SW,225,0.0,0.0,78,0.00,,,-99.99,VWS V12.07,2013-01-15 10:05:00,
2013-01-15 04:10:00,2.4,-2.9,29.81,SW,225,0.0,0.0,78,0.00,,,-99.99,VWS V12.07,2013-01-15 10:10:00,
2013-01-15 04:15:00,2.8,-2.5,29.81,SW,225,0.0,0.0,78,0.00,,,-99.99,VWS V12.07,2013-01-15 10:15:00,
2013-01-15 04:20:00,2.8,-2.5,29.81,SW,225,0.0,0.0,78,0.00,,,-99.99,VWS V12.07,2013-01-15 10:20:00,
2013-01-15 04:25:00,2.8,-2.2,29.81,SW,225,0.0,0.0,79,0.00,,,-99.99,VWS V12.07,2013-01-15 10:25:00,
2013-01-15 04:30:00,3.0,-2.0,29.80,SW,225,0.0,0.0,79,0.00,,,-99.99,VWS V12.07,2013-01-15 10:30:00,
2013-01-15 04:35:00,3.3,-1.7,29.80,SW,225,2.0,2.0,79,0.00,,,-99.99,VWS V12.07,2013-01-15 10:35:00,
2013-01-15 04:40:00,3.3,-1.7,29.80,SW,225,0.0,2.0,79,0.00,,,-99.99,VWS V12.07,2013-01-15 10:40:00,
2013-01-15 04:45:00,3.5,-1.5,29.80,SW,225,0.0,2.0,79,0.00,,,-99.99,VWS V12.07,2013-01-15 10:45:00,
2013-01-15 04:50:00,3.7,-1.3,29.79,SW,225,0.0,0.0,79,0.00,,,-99.99,VWS V12.07,2013-01-15 10:50:00,
2013-01-15 04:55:00,3.9,-1.1,29.79,SW,225,0.0,0.0,79,0.00,,,-99.99,VWS V12.07,2013-01-15 10:55:00,
2013-01-15 05:00:00,4.1,-0.9,29.78,SW,225,0.0,0.0,79,0.00,,,-99.99,VWS V12.07,2013-01-15 11:00:00,
2013-01-15 05:10:00,4.4,-0.7,29.78,SW,225,2.4,2.4,79,0.00,,,-99.99,VWS V12.07,2013-01-15 11:10:00,
2013-01-15 05:20:00,4.8,-0.3,29.78,SW,225,0.0,0.0,79,0.00,,,-99.99,VWS V12.07,2013-01-15 11:20:00,
2013-01-15 05:25:00,4.8,-0.3,29.78,SW,225,0.0,0.0,79,0.00,,,-99.99,VWS V12.07,2013-01-15 11:25:00,
2013-01-15 05:30:00,5.0,-0.1,29.77,SW,225,0.0,0.0,79,0.00,,,-99.99,VWS V12.07,2013-01-15 11:30:00,
2013-01-15 05:40:00,5.3,0.2,29.77,SW,225,0.0,0.0,79,0.00,,,-99.99,VWS V12.07,2013-01-15 11:40:00,
2013-01-15 05:45:00,5.5,0.4,29.77,SW,225,4.0,4.0,79,0.00,,,-99.99,VWS V12.07,2013-01-15 11:45:00,
2013-01-15 05:50:00,5.5,0.4,29.77,SW,225,0.0,0.0,79,0.00,,,-99.99,VWS V12.07,2013-01-15 11:50:00,
2013-01-15 05:55:00,5.5,0.4,29.76,SW,225,0.0,0.0,79,0.00,,,-99.99,VWS V12.07,2013-01-15 11:55:00,
2013-01-15 06:00:00,5.7,0.6,29.76,SW,225,0.0,0.0,79,0.00,,,-99.99,VWS V12.07,2013-01-15 12:00:00,
2013-01-15 06:05:00,5.7,0.6,29.76,SW,225,0.0,0.0,79,0.00,,,-99.99,VWS V12.07,2013-01-15 12:05:00,
2013-01-15 06:10:00,5.7,0.6,29.76,SW,225,0.0,0.0,79,0.00,,,-99.99,VWS V12.07,2013-01-15 12:10:00,
2013-01-15 06:15:00,5.7,0.6,29.76,SW,225,0.0,0.0,79,0.00,,,-99.99,VWS V12.07,2013-01-15 12:15:00,
2013-01-15 06:20:00,5.7,0.6,29.76,SW,225,0.0,0.0,79,0.00,,,-99.99,VWS V12.07,2013-01-15 12:20:00,
2013-01-15 06:25:00,5.7,0.6,29.76,SW,225,0.0,0.0,79,0.00,,,-99.99,VWS V12.07,2013-01-15 12:25:00,
2013-01-15 06:30:00,5.7,0.6,29.76,SW,225,0.0,0.0,79,0.00,,,-99.99,VWS V12.07,2013-01-15 12:30:00,
2013-01-15 06:35:00,5.7,0.6,29.76,SW,225,0.0,0.0,79,0.00,,,-99.99,VWS V12.07,2013-01-15 12:35:00,
2013-01-15 06:40:00,5.7,0.6,29.76,SW,225,0.0,0.0,79,0.00,,,-99.99,VWS V12.07,2013-01-15 12:40:00,
2013-01-15 06:45:00,5.9,0.8,29.76,SSW,202,0.0,0.0,79,0.00,,,-99.99,VWS V12.07,2013-01-15 12:45:00,
2013-01-15 06:50:00,5.9,0.8,29.76,SSW,202,0.0,0.0,79,0.00,,,-99.99,VWS V12.07,2013-01-15 12:50:00,
2013-01-15 06:55:00,6.0,1.2,29.76,SSW,202,0.0,0.0,80,0.00,,,-99.99,VWS V12.07,2013-01-15 12:55:00,
2013-01-15 07:00:00,6.0,1.2,29.76,SSW,202,0.0,0.0,80,0.00,,,-99.99,VWS V12.07,2013-01-15 13:00:00,
2013-01-15 07:05:00,6.0,1.2,29.76,SSW,202,0.8,2.6,80,0.00,,,-99.99,VWS V12.07,2013-01-15 13:05:00,
2013-01-15 07:10:00,6.0,1.2,29.76,SSW,202,0.0,2.6,80,0.00,,,-99.99,VWS V12.07,2013-01-15 13:10:00,
2013-01-15 07:15:00,6.0,1.2,29.76,SSW,202,4.4,4.4,80,0.00,,,-99.99,VWS V12.07,2013-01-15 13:15:00,
2013-01-15 07:20:00,6.0,1.2,29.76,SSW,202,3.3,3.3,80,0.00,,,-99.99,VWS V12.07,2013-01-15 13:20:00,
2013-01-15 07:25:00,6.4,1.6,29.76,SSW,202,4.9,5.1,80,0.00,,,-99.99,VWS V12.07,2013-01-15 13:25:00,
2013-01-15 07:30:00,6.4,1.6,29.76,SSW,202,0.0,5.1,80,0.00,,,-99.99,VWS V12.07,2013-01-15 13:30:00,
2013-01-15 07:35:00,6.4,1.6,29.76,SW,225,3.3,3.3,80,0.00,,,-99.99,VWS V12.07,2013-01-15 13:35:00,
2013-01-15 07:40:00,6.4,1.6,29.76,SW,225,4.2,4.2,80,0.00,,,-99.99,VWS V12.07,2013-01-15 13:40:00,
2013-01-15 07:45:00,6.4,1.6,29.76,SSW,202,0.0,4.2,80,0.00,,,-99.99,VWS V12.07,2013-01-15 13:45:00,
2013-01-15 07:50:00,6.4,1.6,29.76,SSW,202,3.8,3.8,80,0.00,,,-99.99,VWS V12.07,2013-01-15 13:50:00,
2013-01-15 07:55:00,6.4,1.6,29.76,WSW,248,1.3,3.8,80,0.00,,,-99.99,VWS V12.07,2013-01-15 13:55:00,
2013-01-15 08:00:00,6.4,1.8,29.76,SSW,202,0.0,3.8,81,0.00,,,-99.99,VWS V12.07,2013-01-15 14:00:00,
2013-01-15 08:05:00,6.6,2.0,29.77,SSW,202,6.0,6.0,81,0.00,,,-99.99,VWS V12.07,2013-01-15 14:05:00,
2013-01-15 08:10:00,6.6,2.0,29.77,SSW,202,2.0,6.0,81,0.00,,,-99.99,VWS V12.07,2013-01-15 14:10:00,
2013-01-15 08:15:00,6.8,2.2,29.77,SSW,202,0.8,6.0,81,0.00,,,-99.99,VWS V12.07,2013-01-15 14:15:00,
2013-01-15 08:20:00,6.9,2.3,29.76,SSW,202,4.4,4.4,81,0.00,,,-99.99,VWS V12.07,2013-01-15 14:20:00,
2013-01-15 08:25:00,7.1,2.5,29.76,SSW,202,0.0,4.4,81,0.00,,,-99.99,VWS V12.07,2013-01-15 14:25:00,
2013-01-15 08:30:00,7.3,2.7,29.76,SSW,202,2.0,5.3,81,0.00,,,-99.99,VWS V12.07,2013-01-15 14:30:00,
2013-01-15 08:35:00,7.5,2.9,29.76,SSW,202,8.2,8.2,81,0.00,,,-99.99,VWS V12.07,2013-01-15 14:35:00,
2013-01-15 08:40:00,7.8,3.2,29.76,SW,225,4.6,8.2,81,0.00,,,-99.99,VWS V12.07,2013-01-15 14:40:00,
2013-01-15 08:45:00,8.0,3.4,29.76,SW,225,4.0,8.2,81,0.00,,,-99.99,VWS V12.07,2013-01-15 14:45:00,
2013-01-15 08:50:00,8.4,3.8,29.76,South,180,3.3,3.3,81,0.00,,,-99.99,VWS V12.07,2013-01-15 14:50:00,
2013-01-15 08:55:00,8.6,4.2,29.76,SSW,202,4.9,4.9,82,0.00,,,-99.99,VWS V12.07,2013-01-15 14:55:00,
2013-01-15 09:00:00,8.9,4.5,29.76,SW,225,4.2,4.9,82,0.00,,,-99.99,VWS V12.07,2013-01-15 15:00:00,
2013-01-15 09:05:00,9.1,4.7,29.76,SSW,202,3.3,3.3,82,0.00,,,-99.99,VWS V12.07,2013-01-15 15:05:00,
2013-01-15 09:10:00,9.6,5.2,29.75,SSW,202,3.8,4.9,82,0.00,,,-99.99,VWS V12.07,2013-01-15 15:10:00,
2013-01-15 09:15:00,9.6,5.2,29.75,SSW,202,5.5,6.2,82,0.00,,,-99.99,VWS V12.07,2013-01-15 15:15:00,
2013-01-15 09:20:00,10.0,5.6,29.75,SW,225,5.1,5.1,82,0.00,,,-99.99,VWS V12.07,2013-01-15 15:20:00,
2013-01-15 09:25:00,10.5,6.1,29.75,South,180,6.2,7.1,82,0.00,,,-99.99,VWS V12.07,2013-01-15 15:25:00,
2013-01-15 09:30:00,10.7,6.3,29.75,SSW,202,2.9,7.1,82,0.00,,,-99.99,VWS V12.07,2013-01-15 15:30:00,
2013-01-15 09:35:00,10.9,6.5,29.75,South,180,4.0,5.8,82,0.00,,,-99.99,VWS V12.07,2013-01-15 15:35:00,
2013-01-15 09:40:00,11.3,6.9,29.75,SSW,202,4.6,5.8,82,0.00,,,-99.99,VWS V12.07,2013-01-15 15:40:00,
2013-01-15 09:45:00,11.6,7.2,29.75,SW,225,3.8,5.8,82,0.00,,,-99.99,VWS V12.07,2013-01-15 15:45:00,
2013-01-15 09:50:00,12.0,7.6,29.75,SW,225,4.2,7.6,82,0.00,,,-99.99,VWS V12.07,2013-01-15 15:50:00,
2013-01-15 09:55:00,12.2,7.8,29.75,SSW,202,0.8,7.6,82,0.00,,,-99.99,VWS V12.07,2013-01-15 15:55:00,
2013-01-15 10:00:00,12.3,7.9,29.75,SSW,202,6.0,7.6,82,0.00,,,-99.99,VWS V12.07,2013-01-15 16:00:00,
2013-01-15 10:05:00,12.9,8.4,29.75,SW,225,0.0,6.4,82,0.00,,,-99.99,VWS V12.07,2013-01-15 16:05:00,
2013-01-15 10:10:00,13.6,9.1,29.75,SSW,202,1.7,6.4,82,0.00,,,-99.99,VWS V12.07,2013-01-15 16:10:00,
2013-01-15 10:15:00,13.6,9.1,29.74,SSW,202,3.1,6.4,82,0.00,,,-99.99,VWS V12.07,2013-01-15 16:15:00,
2013-01-15 10:20:00,14.1,9.4,29.75,SW,225,7.1,7.1,81,0.00,,,-99.99,VWS V12.07,2013-01-15 16:20:00,
2013-01-15 10:25:00,14.3,9.6,29.75,SSW,202,4.2,7.1,81,0.00,,,-99.99,VWS V12.07,2013-01-15 16:25:00,
2013-01-15 10:30:00,14.7,9.9,29.75,SSW,202,1.3,7.1,81,0.00,,,-99.99,VWS V12.07,2013-01-15 16:30:00,
2013-01-15 10:40:00,15.4,10.4,29.74,SSW,202,0.0,6.2,80,0.00,,,-99.99,VWS V12.07,2013-01-15 16:40:00,
2013-01-15 10:50:00,15.9,10.8,29.73,SSW,202,4.4,4.4,80,0.00,,,-99.99,VWS V12.07,2013-01-15 16:50:00,
2013-01-15 10:55:00,16.7,11.6,29.73,SSW,202,5.8,5.8,80,0.00,,,-99.99,VWS V12.07,2013-01-15 16:55:00,
2013-01-15 11:05:00,17.7,12.3,29.73,SSW,202,2.9,8.7,79,0.00,,,-99.99,VWS V12.07,2013-01-15 17:05:00,
2013-01-15 11:10:00,17.9,12.2,29.73,SSW,202,8.0,8.7,78,0.00,,,-99.99,VWS V12.07,2013-01-15 17:10:00,
2013-01-15 11:15:00,18.3,12.6,29.73,SW,225,6.0,8.7,78,0.00,,,-99.99,VWS V12.07,2013-01-15 17:15:00,
2013-01-15 11:20:00,18.6,12.3,29.72,WSW,248,5.8,5.8,76,0.00,,,-99.99,VWS V12.07,2013-01-15 17:20:00,
2013-01-15 11:25:00,19.0,12.4,29.72,SW,225,5.8,5.8,75,0.00,,,-99.99,VWS V12.07,2013-01-15 17:25:00,
2013-01-15 11:30:00,19.0,12.4,29.72,SSW,202,4.0,5.8,75,0.00,,,-99.99,VWS V12.07,2013-01-15 17:30:00,
2013-01-15 11:35:00,19.5,12.6,29.72,SSW,202,3.3,5.1,74,0.00,,,-99.99,VWS V12.07,2013-01-15 17:35:00,
2013-01-15 11:40:00,19.5,12.6,29.71,SW,225,5.1,5.1,74,0.00,,,-99.99,VWS V12.07,2013-01-15 17:40:00,
2013-01-15 11:45:00,20.1,12.5,29.71,SSW,202,10.9,10.9,72,0.00,,,-99.99,VWS V12.07,2013-01-15 17:45:00,
2013-01-15 11:50:00,20.1,12.5,29.71,SSW,202,10.9,10.9,72,0.00,,,-99.99,VWS V12.07,2013-01-15 17:50:00,
2013-01-15 11:55:00,20.3,12.4,29.71,SW,225,9.8,10.9,71,0.00,,,-99.99,VWS V12.07,2013-01-15 17:55:00,
2013-01-15 12:00:00,20.4,12.2,29.70,SW,225,5.3,10.9,70,0.00,,,-99.99,VWS V12.07,2013-01-15 18:00:00,
2013-01-15 12:10:00,20.8,12.6,29.70,SSW,202,3.8,7.3,70,0.00,,,-99.99,VWS V12.07,2013-01-15 18:10:00,
2013-01-15 12:15:00,20.8,12.2,29.70,SW,225,8.9,8.9,69,0.00,,,-99.99,VWS V12.07,2013-01-15 18:15:00,
2013-01-15 12:20:00,21.0,12.1,29.70,SW,225,9.8,9.8,68,0.00,,,-99.99,VWS V12.07,2013-01-15 18:20:00,
2013-01-15 12:25:00,21.3,12.1,29.70,SW,225,6.0,9.8,67,0.00,,,-99.99,VWS V12.07,2013-01-15 18:25:00,
2013-01-15 12:35:00,21.7,12.1,29.69,SSW,202,0.4,6.2,66,0.00,,,-99.99,VWS V12.07,2013-01-15 18:35:00,
2013-01-15 12:40:00,21.7,12.1,29.69,SW,225,0.0,9.6,66,0.00,,,-99.99,VWS V12.07,2013-01-15 18:40:00,
2013-01-15 12:45:00,21.9,12.0,29.68,SSW,202,4.9,9.6,65,0.00,,,-99.99,VWS V12.07,2013-01-15 18:45:00,
2013-01-15 12:50:00,21.9,12.0,29.68,SSW,202,5.5,5.5,65,0.00,,,-99.99,VWS V12.07,2013-01-15 18:50:00,
2013-01-15 12:55:00,21.9,12.0,29.68,SSW,202,7.6,7.6,65,0.00,,,-99.99,VWS V12.07,2013-01-15 18:55:00,
2013-01-15 13:00:00,21.9,12.0,29.68,SSW,202,10.5,10.5,65,0.00,,,-99.99,VWS V12.07,2013-01-15 19:00:00,
2013-01-15 13:05:00,22.1,12.1,29.68,SSW,202,9.1,10.5,65,0.00,,,-99.99,VWS V12.07,2013-01-15 19:05:00,
2013-01-15 13:10:00,21.9,11.6,29.68,SSW,202,6.9,10.5,64,0.00,,,-99.99,VWS V12.07,2013-01-15 19:10:00,
2013-01-15 13:15:00,22.1,11.8,29.67,WSW,248,10.7,10.7,64,0.00,,,-99.99,VWS V12.07,2013-01-15 19:15:00,
2013-01-15 13:20:00,22.1,11.8,29.67,SW,225,6.0,10.7,64,0.00,,,-99.99,VWS V12.07,2013-01-15 19:20:00,
2013-01-15 13:25:00,22.2,11.9,29.67,SSW,202,6.4,10.7,64,0.00,,,-99.99,VWS V12.07,2013-01-15 19:25:00,
2013-01-15 13:30:00,22.2,11.9,29.67,SW,225,5.1,10.7,64,0.00,,,-99.99,VWS V12.07,2013-01-15 19:30:00,
2013-01-15 13:40:00,22.6,12.3,29.67,SW,225,2.2,9.3,64,0.00,,,-99.99,VWS V12.07,2013-01-15 19:40:00,
2013-01-15 13:45:00,22.8,12.5,29.66,SSW,202,2.4,9.3,64,0.00,,,-99.99,VWS V12.07,2013-01-15 19:45:00,
2013-01-15 13:50:00,22.8,12.5,29.66,SSW,202,6.0,6.0,64,0.00,,,-99.99,VWS V12.07,2013-01-15 19:50:00,
2013-01-15 13:55:00,22.8,12.5,29.66,SW,225,0.0,6.0,64,0.00,,,-99.99,VWS V12.07,2013-01-15 19:55:00,
2013-01-15 14:00:00,23.0,12.6,29.66,SSW,202,0.0,6.0,64,0.00,,,-99.99,VWS V12.07,2013-01-15 20:00:00,
2013-01-15 14:05:00,23.1,12.8,29.66,SW,225,5.1,5.1,64,0.00,,,-99.99,VWS V12.07,2013-01-15 20:05:00,
2013-01-15 14:10:00,23.1,12.8,29.66,SW,225,5.8,6.4,64,0.00,,,-99.99,VWS V12.07,2013-01-15 20:10:00,
2013-01-15 14:15:00,23.3,12.9,29.66,SSW,202,0.0,6.4,64,0.00,,,-99.99,VWS V12.07,2013-01-15 20:15:00,
2013-01-15 14:20:00,23.5,13.1,29.66,SW,225,0.0,5.5,64,0.00,,,-99.99,VWS V12.07,2013-01-15 20:20:00,
2013-01-15 14:25:00,23.7,13.3,29.66,SSW,202,2.2,6.9,64,0.00,,,-99.99,VWS V12.07,2013-01-15 20:25:00,
2013-01-15 14:30:00,23.9,13.5,29.65,WSW,248,0.0,7.3,64,0.00,,,-99.99,VWS V12.07,2013-01-15 20:30:00,
2013-01-15 14:35:00,24.0,13.2,29.65,SW,225,5.8,5.8,63,0.00,,,-99.99,VWS V12.07,2013-01-15 20:35:00,
2013-01-15 14:40:00,24.0,13.2,29.65,South,180,5.1,5.8,63,0.00,,,-99.99,VWS V12.07,2013-01-15 20:40:00,
2013-01-15 14:45:00,24.0,12.9,29.65,South,180,5.5,6.0,62,0.00,,,-99.99,VWS V12.07,2013-01-15 20:45:00,
2013-01-15 14:50:00,24.0,12.9,29.65,SW,225,6.0,6.0,62,0.00,,,-99.99,VWS V12.07,2013-01-15 20:50:00,
2013-01-15 14:55:00,24.0,12.9,29.65,SSW,202,0.0,6.0,62,0.00,,,-99.99,VWS V12.07,2013-01-15 20:55:00,
2013-01-15 15:00:00,24.2,13.1,29.65,SW,225,0.0,7.6,62,0.00,,,-99.99,VWS V12.07,2013-01-15 21:00:00,
2013-01-15 15:05:00,24.4,13.3,29.65,SW,225,6.2,6.2,62,0.00,,,-99.99,VWS V12.07,2013-01-15 21:05:00,
2013-01-15 15:10:00,24.4,4.1,29.65,WSW,248,6.9,6.9,41,0.00,,,-99.99,VWS V12.07,2013-01-15 21:10:00,
2013-01-15 15:15:00,24.6,13.1,29.65,SW,225,2.9,6.9,61,0.00,,,-99.99,VWS V12.07,2013-01-15 21:15:00,
2013-01-15 15:20:00,24.4,12.5,29.65,SSW,202,3.5,4.9,60,0.00,,,-99.99,VWS V12.07,2013-01-15 21:20:00,
2013-01-15 15:25:00,24.6,12.7,29.64,WSW,248,0.0,4.9,60,0.00,,,-99.99,VWS V12.07,2013-01-15 21:25:00,
2013-01-15 15:30:00,24.6,12.7,29.64,SSW,202,3.1,9.6,60,0.00,,,-99.99,VWS V12.07,2013-01-15 21:30:00,
2013-01-15 15:35:00,24.8,12.9,29.64,SSW,202,0.0,4.9,60,0.00,,,-99.99,VWS V12.07,2013-01-15 21:35:00,
2013-01-15 15:40:00,24.9,13.0,29.64,SW,225,0.0,4.9,60,0.00,,,-99.99,VWS V12.07,2013-01-15 21:40:00,
2013-01-15 15:45:00,25.1,13.2,29.64,SSW,202,12.3,12.3,60,0.00,,,-99.99,VWS V12.07,2013-01-15 21:45:00,
2013-01-15 15:50:00,25.3,13.0,29.64,SW,225,0.0,12.3,59,0.00,,,-99.99,VWS V12.07,2013-01-15 21:50:00,
2013-01-15 15:55:00,25.5,13.2,29.63,SW,225,3.5,12.3,59,0.00,,,-99.99,VWS V12.07,2013-01-15 21:55:00,
2013-01-15 16:00:00,25.5,13.2,29.63,SW,225,9.6,12.3,59,0.00,,,-99.99,VWS V12.07,2013-01-15 22:00:00,
2013-01-15 16:05:00,25.5,13.2,29.63,WSW,248,5.1,9.6,59,0.00,,,-99.99,VWS V12.07,2013-01-15 22:05:00,
2013-01-15 16:10:00,25.3,12.6,29.63,SSW,202,5.8,9.6,58,0.00,,,-99.99,VWS V12.07,2013-01-15 22:10:00,
2013-01-15 16:15:00,24.9,12.2,29.63,SSW,202,0.0,9.6,58,0.00,,,-99.99,VWS V12.07,2013-01-15 22:15:00,
2013-01-15 16:20:00,24.4,11.8,29.63,SW,225,0.0,6.0,58,0.00,,,-99.99,VWS V12.07,2013-01-15 22:20:00,
2013-01-15 16:25:00,24.0,11.4,29.63,SSW,202,1.3,6.0,58,0.00,,,-99.99,VWS V12.07,2013-01-15 22:25:00,
2013-01-15 16:30:00,23.5,11.3,29.63,SSW,202,2.2,6.0,59,0.00,,,-99.99,VWS V12.07,2013-01-15 22:30:00,
2013-01-15 16:35:00,23.3,11.1,29.63,SSW,202,1.1,2.2,59,0.00,,,-99.99,VWS V12.07,2013-01-15 22:35:00,
2013-01-15 16:40:00,23.0,10.8,29.62,SSW,202,3.1,3.1,59,0.00,,,-99.99,VWS V12.07,2013-01-15 22:40:00,
2013-01-15 16:45:00,22.6,10.4,29.62,SSW,202,4.2,4.2,59,0.00,,,-99.99,VWS V12.07,2013-01-15 22:45:00,
2013-01-15 16:50:00,22.2,10.4,29.62,SSW,202,4.2,6.7,60,0.00,,,-99.99,VWS V12.07,2013-01-15 22:50:00,
2013-01-15 17:00:00,21.7,10.0,29.62,SSW,202,3.1,6.7,60,0.00,,,-99.99,VWS V12.07,2013-01-15 23:00:00,
2013-01-15 17:10:00,21.3,9.6,29.62,SW,225,8.7,8.7,60,0.00,,,-99.99,VWS V12.07,2013-01-15 23:10:00,
2013-01-15 17:15:00,21.0,9.3,29.62,SSW,202,0.0,8.7,60,0.00,,,-99.99,VWS V12.07,2013-01-15 23:15:00,
2013-01-15 17:20:00,20.8,9.5,29.62,SSW,202,0.0,0.0,61,0.00,,,-99.99,VWS V12.07,2013-01-15 23:20:00,
2013-01-15 17:25:00,20.4,9.1,29.61,SSW,202,0.0,0.0,61,0.00,,,-99.99,VWS V12.07,2013-01-15 23:25:00,
2013-01-15 17:30:00,20.3,9.4,29.62,SSW,202,0.0,0.0,62,0.00,,,-99.99,VWS V12.07,2013-01-15 23:30:00,
2013-01-15 17:35:00,20.1,9.2,29.61,SSW,202,0.0,0.0,62,0.00,,,-99.99,VWS V12.07,2013-01-15 23:35:00,
2013-01-15 17:40:00,19.9,9.0,29.61,SSW,202,0.0,0.0,62,0.00,,,-99.99,VWS V12.07,2013-01-15 23:40:00,
2013-01-15 17:50:00,19.5,8.6,29.61,SSW,202,0.0,0.0,62,0.00,,,-99.99,VWS V12.07,2013-01-15 23:50:00,
2013-01-15 18:00:00,19.2,8.7,29.60,SSW,202,0.0,3.8,63,0.00,,,-99.99,VWS V12.07,2013-01-16 00:00:00,
2013-01-15 18:10:00,18.6,8.1,29.60,SSW,202,0.0,5.5,63,0.00,,,-99.99,VWS V12.07,2013-01-16 00:10:00,
2013-01-15 18:15:00,18.5,8.4,29.60,SSW,202,0.0,5.5,64,0.00,,,-99.99,VWS V12.07,2013-01-16 00:15:00,
2013-01-15 18:25:00,18.3,8.2,29.60,SSW,202,0.0,0.0,64,0.00,,,-99.99,VWS V12.07,2013-01-16 00:25:00,
2013-01-15 18:30:00,18.1,8.0,29.59,SSW,202,0.0,0.0,64,0.00,,,-99.99,VWS V12.07,2013-01-16 00:30:00,
2013-01-15 18:35:00,18.1,8.3,29.60,SSW,202,0.0,0.0,65,0.00,,,-99.99,VWS V12.07,2013-01-16 00:35:00,
2013-01-15 18:40:00,17.9,8.1,29.60,SSW,202,0.0,0.0,65,0.00,,,-99.99,VWS V12.07,2013-01-16 00:40:00,
2013-01-15 18:45:00,17.7,7.9,29.59,SSW,202,2.9,2.9,65,0.00,,,-99.99,VWS V12.07,2013-01-16 00:45:00,
2013-01-15 18:50:00,17.7,8.3,29.59,SSW,202,0.0,2.9,66,0.00,,,-99.99,VWS V12.07,2013-01-16 00:50:00,
2013-01-15 19:00:00,17.4,8.0,29.58,SW,225,8.2,8.2,66,0.00,,,-99.99,VWS V12.07,2013-01-16 01:00:00,
2013-01-15 19:05:00,17.4,8.0,29.58,SSW,202,2.9,8.2,66,0.00,,,-99.99,VWS V12.07,2013-01-16 01:05:00,
2013-01-15 19:10:00,17.4,8.3,29.58,SSW,202,0.0,8.2,67,0.00,,,-99.99,VWS V12.07,2013-01-16 01:10:00,
2013-01-15 19:15:00,17.7,8.6,29.58,SSW,202,1.5,8.2,67,0.00,,,-99.99,VWS V12.07,2013-01-16 01:15:00,
2013-01-15 19:20:00,17.7,8.9,29.58,SSW,202,0.0,3.5,68,0.00,,,-99.99,VWS V12.07,2013-01-16 01:20:00,
2013-01-15 19:25:00,17.6,8.9,29.57,SSW,202,1.1,3.5,68,0.00,,,-99.99,VWS V12.07,2013-01-16 01:25:00,
2013-01-15 19:30:00,17.6,8.9,29.57,SSW,202,0.0,3.5,68,0.00,,,-99.99,VWS V12.07,2013-01-16 01:30:00,
2013-01-15 19:35:00,17.7,8.9,29.57,SSW,202,3.3,3.3,68,0.00,,,-99.99,VWS V12.07,2013-01-16 01:35:00,
2013-01-15 19:40:00,17.7,8.9,29.56,SSW,202,1.5,3.5,68,0.00,,,-99.99,VWS V12.07,2013-01-16 01:40:00,
2013-01-15 19:45:00,17.7,8.9,29.56,SSW,202,2.9,3.5,68,0.00,,,-99.99,VWS V12.07,2013-01-16 01:45:00,
2013-01-15 19:50:00,17.7,9.3,29.56,SSW,202,1.3,2.9,69,0.00,,,-99.99,VWS V12.07,2013-01-16 01:50:00,
2013-01-15 19:55:00,17.7,9.3,29.56,SSW,202,2.9,3.3,69,0.00,,,-99.99,VWS V12.07,2013-01-16 01:55:00,
2013-01-15 20:00:00,17.9,9.5,29.55,SW,225,5.8,5.8,69,0.00,,,-99.99,VWS V12.07,2013-01-16 02:00:00,
2013-01-15 20:05:00,17.9,9.5,29.55,SSW,202,1.3,5.8,69,0.00,,,-99.99,VWS V12.07,2013-01-16 02:05:00,
2013-01-15 20:10:00,18.1,10.0,29.55,SSW,202,0.6,5.8,70,0.00,,,-99.99,VWS V12.07,2013-01-16 02:10:00,
2013-01-15 20:15:00,18.1,10.0,29.54,SSW,202,2.6,5.8,70,0.00,,,-99.99,VWS V12.07,2013-01-16 02:15:00,
2013-01-15 20:20:00,18.1,10.0,29.54,SW,225,2.9,2.9,70,0.00,,,-99.99,VWS V12.07,2013-01-16 02:20:00,
2013-01-15 20:25:00,18.3,10.2,29.54,SW,225,3.3,6.7,70,0.00,,,-99.99,VWS V12.07,2013-01-16 02:25:00,
2013-01-15 20:30:00,18.5,10.7,29.54,SSW,202,8.0,8.0,71,0.00,,,-99.99,VWS V12.07,2013-01-16 02:30:00,
2013-01-15 20:35:00,18.6,10.8,29.53,SSW,202,2.9,8.0,71,0.00,,,-99.99,VWS V12.07,2013-01-16 02:35:00,
2013-01-15 20:40:00,18.6,10.8,29.53,SW,225,5.8,8.0,71,0.00,,,-99.99,VWS V12.07,2013-01-16 02:40:00,
2013-01-15 20:45:00,18.8,11.0,29.52,SW,225,4.6,8.0,71,0.00,,,-99.99,VWS V12.07,2013-01-16 02:45:00,
2013-01-15 20:50:00,19.0,11.2,29.52,SSW,202,2.6,4.6,71,0.00,,,-99.99,VWS V12.07,2013-01-16 02:50:00,
2013-01-15 20:55:00,19.2,11.4,29.52,SSW,202,5.8,5.8,71,0.00,,,-99.99,VWS V12.07,2013-01-16 02:55:00,
2013-01-15 21:00:00,19.2,11.7,29.51,SSW,202,3.3,5.8,72,0.00,,,-99.99,VWS V12.07,2013-01-16 03:00:00,
2013-01-15 21:05:00,19.4,11.9,29.51,SSW,202,1.5,5.8,72,0.00,,,-99.99,VWS V12.07,2013-01-16 03:05:00,
2013-01-15 21:10:00,19.5,12.0,29.51,South,180,1.3,5.8,72,0.00,,,-99.99,VWS V12.07,2013-01-16 03:10:00,
2013-01-15 21:15:00,19.5,12.0,29.51,SSW,202,3.8,5.8,72,0.00,,,-99.99,VWS V12.07,2013-01-16 03:15:00,
2013-01-15 21:20:00,19.5,12.0,29.51,SSW,202,5.1,5.1,72,0.00,,,-99.99,VWS V12.07,2013-01-16 03:20:00,
2013-01-15 21:25:00,19.5,12.0,29.50,SW,225,1.7,5.1,72,0.00,,,-99.99,VWS V12.07,2013-01-16 03:25:00,
2013-01-15 21:30:00,19.5,12.0,29.50,SSW,202,6.4,6.4,72,0.00,,,-99.99,VWS V12.07,2013-01-16 03:30:00,
2013-01-15 21:35:00,19.5,12.0,29.49,SSW,202,5.8,6.4,72,0.00,,,-99.99,VWS V12.07,2013-01-16 03:35:00,
2013-01-15 21:40:00,19.5,12.0,29.49,SSW,202,4.4,6.4,72,0.00,,,-99.99,VWS V12.07,2013-01-16 03:40:00,
2013-01-15 21:45:00,19.5,12.0,29.49,SW,225,2.2,6.4,72,0.00,,,-99.99,VWS V12.07,2013-01-16 03:45:00,
2013-01-15 21:50:00,19.5,12.0,29.47,SSW,202,4.2,5.8,72,0.00,,,-99.99,VWS V12.07,2013-01-16 03:50:00,
2013-01-15 21:55:00,19.5,12.0,29.48,SSW,202,2.4,5.8,72,0.00,,,-99.99,VWS V12.07,2013-01-16 03:55:00,
2013-01-15 22:00:00,19.5,12.0,29.49,SSW,202,1.7,7.8,72,0.00,,,-99.99,VWS V12.07,2013-01-16 04:00:00,
2013-01-15 22:10:00,19.5,12.0,29.50,SSW,202,3.8,7.1,72,0.00,,,-99.99,VWS V12.07,2013-01-16 04:10:00,
2013-01-15 22:15:00,19.7,12.1,29.50,SW,225,1.1,7.6,72,0.00,,,-99.99,VWS V12.07,2013-01-16 04:15:00,
2013-01-15 22:20:00,19.9,12.3,29.50,SW,225,4.6,4.6,72,0.00,,,-99.99,VWS V12.07,2013-01-16 04:20:00,
2013-01-15 22:25:00,19.9,12.3,29.50,SSW,202,6.0,9.3,72,0.00,,,-99.99,VWS V12.07,2013-01-16 04:25:00,
2013-01-15 22:30:00,19.9,12.3,29.50,SW,225,3.8,9.3,72,0.00,,,-99.99,VWS V12.07,2013-01-16 04:30:00,
2013-01-15 22:35:00,19.9,12.7,29.49,SSW,202,3.1,3.8,73,0.00,,,-99.99,VWS V12.07,2013-01-16 04:35:00,
2013-01-15 22:40:00,20.1,12.9,29.49,South,180,4.0,5.5,73,0.00,,,-99.99,VWS V12.07,2013-01-16 04:40:00,
2013-01-15 22:45:00,20.3,12.7,29.48,SW,225,5.3,5.5,72,0.00,,,-99.99,VWS V12.07,2013-01-16 04:45:00,
2013-01-15 22:50:00,20.3,12.7,29.47,South,180,5.8,5.8,72,0.00,,,-99.99,VWS V12.07,2013-01-16 04:50:00,
2013-01-15 22:55:00,20.3,12.7,29.47,South,180,5.5,7.6,72,0.00,,,-99.99,VWS V12.07,2013-01-16 04:55:00,
2013-01-15 23:00:00,20.4,12.8,29.47,SSW,202,6.0,7.6,72,0.00,,,-99.99,VWS V12.07,2013-01-16 05:00:00,
2013-01-15 23:05:00,20.4,12.8,29.46,SW,225,4.4,6.7,72,0.00,,,-99.99,VWS V12.07,2013-01-16 05:05:00,
2013-01-15 23:10:00,20.4,12.8,29.46,SW,225,3.5,6.7,72,0.00,,,-99.99,VWS V12.07,2013-01-16 05:10:00,
2013-01-15 23:15:00,20.4,12.8,29.45,SW,225,4.4,6.7,72,0.00,,,-99.99,VWS V12.07,2013-01-16 05:15:00,
2013-01-15 23:20:00,20.4,12.8,29.44,South,180,4.2,10.7,72,0.00,,,-99.99,VWS V12.07,2013-01-16 05:20:00,
2013-01-15 23:25:00,20.8,13.2,29.44,SW,225,3.1,10.7,72,0.00,,,-99.99,VWS V12.07,2013-01-16 05:25:00,
2013-01-15 23:30:00,20.8,13.2,29.44,SW,225,7.3,10.7,72,0.00,,,-99.99,VWS V12.07,2013-01-16 05:30:00,
2013-01-15 23:35:00,20.8,13.2,29.43,SW,225,8.2,8.2,72,0.00,,,-99.99,VWS V12.07,2013-01-16 05:35:00,
2013-01-15 23:40:00,20.8,12.9,29.43,SSW,202,5.5,8.5,71,0.00,,,-99.99,VWS V12.07,2013-01-16 05:40:00,
2013-01-15 23:45:00,20.8,12.9,29.42,South,180,5.3,10.7,71,0.00,,,-99.99,VWS V12.07,2013-01-16 05:45:00,
2013-01-15 23:50:00,20.4,12.5,29.42,SSW,202,2.6,8.0,71,0.00,,,-99.99,VWS V12.07,2013-01-16 05:50:00,
2013-01-15 23:55:00,20.4,12.5,29.42,South,180,4.4,8.0,71,0.00,,,-99.99,VWS V12.07,2013-01-16 05:55:00,